Vertical_Velocity
-3 -5 -5 -1 -11 -1 -4 -6 2 -0 -4 -1 0 1 19 -49 16 12 3 1 -3 7
-4 -4 -5 -7 -5 -3 -1 -5 -0 -1 -8 1 9 6 -12 5 12 8 3 -4 2 12
-3 -2 -4 -3 -5 -1 1 -4 -0 -1 -3 -1 -2 8 8 4 8 -5 29 9 -1 -28
-3 -5 -5 -3 -2 -4 1 -0 -1 -6 -4 1 -2 -3 -13 7 9 10 -3 12 -9 -15
-7 -3 -4 1 3 -4 1 4 3 -2 -2 6 5 3 9 17 8 -2 10 6 4 7
-4 -7 4 -3 -4 -0 4 2 1 -3 -2 12 -4 5 5 2 11 4 4 22 35 -4
-4 -7 8 -3 -3 0 -1 3 1 3 5 7 -10 0 37 7 14 7 7 15 -6 2
2 -7 5 -6 -2 -1 3 1 -6 -1 4 13 -19 -10 -16 -1 8 3 10 12 6 3
-5 3 -4 -2 -3 -4 1 -6 4 -0 -6 2 8 16 5 -20 9 5 11 4 2 3
5 1 1 0 -1 2 -4 3 5 2 -1 -6 -10 16 -16 -22 -4 2 4 0 1 -5
5 2 1 -1 2 5 -3 4 2 0 1 -3 -4 0 -10 6 -8 3 14 12 -0 -4
0 1 0 1 3 -8 1 4 -3 2 2 1 -1 3 2 18 3 78 18 1 3 -4
-3 3 -1 3 -11 -1 0 1 -1 -3 -3 -3 -3 3 4 5 5 26 2 -4 3 19
1 2 -2 -6 -0 2 -0 -1 3 -0 -2 -1 -3 -4 3 5 9 9 13 15 9 13
Height
3007 3004 3002 2999 2998 2995 2993 2993 2993 2991 2992 2996 2999 3000 3002 3008 3014 3018 3022 3027 3033 3039
3000 2997 2994 2991 2988 2986 2985 2983 2982 2982 2984 2985 2989 2993 2989 2996 3004 3009 3011 3016 3022 3026
2993 2990 2986 2982 2980 2978 2977 2975 2974 2975 2975 2976 2981 2984 2986 2990 2996 2998 3002 3006 3007 3014
2986 2982 2978 2975 2972 2970 2969 2968 2966 2967 2969 2968 2972 2972 2976 2983 2986 2988 2992 2994 2996 3005
2979 2976 2971 2966 2964 2962 2961 2961 2960 2960 2962 2963 2964 2965 2970 2976 2978 2978 2981 2986 2991 2997
2972 2968 2963 2958 2956 2953 2953 2953 2952 2951 2953 2954 2954 2954 2962 2966 2968 2970 2974 2979 2982 2990
2966 2961 2955 2951 2948 2945 2943 2942 2942 2942 2944 2944 2944 2937 2946 2954 2959 2963 2968 2971 2974 2980
2960 2954 2948 2944 2941 2938 2936 2934 2933 2933 2934 2934 2927 2932 2937 2945 2950 2955 2960 2963 2968 2971
2956 2950 2945 2940 2937 2933 2929 2927 2926 2926 2927 2927 2928 2929 2931 2933 2940 2946 2952 2956 2959 2963
2957 2949 2943 2937 2934 2930 2925 2923 2921 2920 2920 2921 2924 2925 2931 2932 2932 2939 2945 2949 2954 2954
2956 2950 2944 2939 2934 2929 2925 2919 2916 2916 2915 2915 2917 2919 2920 2922 2928 2932 2937 2940 2945 2948
2957 2953 2947 2941 2936 2932 2927 2922 2917 2914 2912 2912 2913 2914 2917 2919 2921 2913 2925 2933 2939 2943
2959 2955 2951 2944 2939 2935 2931 2926 2922 2918 2914 2912 2913 2911 2911 2912 2913 2916 2922 2925 2930 2933
2961 2956 2953 2948 2944 2941 2936 2933 2929 2924 2921 2917 2914 2912 2911 2911 2910 2911 2916 2916 2921 2924